1519282800.94,58790,9.88,72698.0,-8.01,-38.17,-38.73,0,*58
1519282802.18,58791,9.88,72696.5,-8.01,-38.55,-39.15,0,*5E
1519282803.43,58792,9.88,72696.5,-8.03,-38.55,-39.03,0,*58
1519282804.69,58793,9.88,72698.3,-8.03,-38.55,-39.15,0,*5E
1519282805.93,58794,9.88,72696.5,-8.05,-38.55,-39.15,0,*5F
1519282807.16,58795,9.88,72696.8,-8.05,-38.61,-39.03,0,*5E
1519282808.39,58796,9.88,72698.3,-8.03,-38.43,-38.97,0,*57
1519282809.62,58797,9.88,72696.5,-8.05,-38.73,-39.23,0,*5D
1519282810.82,58798,9.88,72698.5,-8.05,-38.35,-38.97,0,*5E
1519282812.08,58799,9.88,72696.3,-8.05,-38.23,-38.79,0,*58
1519282813.31,58800,9.88,72696.0,-8.05,-38.43,-39.15,0,*5A
1519282814.52,58801,9.88,72698.0,-8.05,-38.35,-38.97,0,*51
1519282815.77,58802,9.88,72696.5,-8.07,-38.43,-39.03,0,*5D
1519282817.0,58803,9.88,72694.5,-8.07,-38.43,-38.97,0,*50
1519282818.24,58804,9.88,72698.3,-8.07,-38.35,-38.97,0,*56
1519282819.49,58805,9.88,72698.5,-8.07,-38.43,-39.03,0,*5A
1519282820.7,58806,9.88,72698.5,-8.05,-38.35,-38.85,0,*55
1519282821.93,58807,9.88,72692.0,-8.07,-38.43,-38.97,0,*54
1519282823.19,58808,9.88,72698.0,-8.11,-38.43,-39.03,0,*50
1519282824.41,58809,9.88,72694.8,-8.07,-38.73,-39.35,0,*50
1519282825.69,58810,9.88,72698.8,-8.11,-38.67,-39.23,0,*5D
1519282826.95,58811,9.88,72696.8,-8.07,-38.73,-39.23,0,*5E
1519282828.21,58812,9.88,72700.5,-8.07,-38.85,-39.41,0,*50
1519282829.46,58813,9.88,72694.5,-8.07,-38.61,-39.23,0,*5F
1519282830.72,58814,9.88,72698.3,-8.07,-38.55,-39.15,0,*5A
1519282831.99,58815,9.88,72694.8,-8.11,-38.85,-39.29,0,*5E
1519282833.22,58816,9.88,72694.8,-8.11,-38.85,-39.47,0,*55
1519282834.46,58817,9.88,72696.5,-8.15,-38.85,-39.47,0,*50
1519282835.67,58818,9.88,72698.8,-8.13,-39.09,-39.85,0,*52
1519282836.94,58819,9.88,72698.0,-8.13,-39.15,-39.71,0,*55
1519282838.23,58820,9.88,72696.3,-8.15,-39.15,-39.71,0,*59
1519282839.46,58821,9.88,72698.5,-8.15,-38.97,-39.47,0,*56
1519282840.69,58822,9.88,72696.3,-8.15,-38.73,-39.35,0,*5A
1519282841.95,58823,9.88,72696.0,-8.15,-39.09,-39.53,0,*57
1519282843.21,58824,9.88,72694.3,-8.15,-38.73,-39.15,0,*5E
1519282844.44,58825,9.88,72696.0,-8.17,-38.79,-39.35,0,*55
1519282845.71,58826,9.88,72696.8,-8.17,-39.15,-39.59,0,*57
1519282846.96,58827,9.88,72698.5,-8.19,-38.79,-39.35,0,*59
1519282848.21,58828,9.88,72700.0,-8.17,-39.03,-39.53,0,*54
1519282849.47,58829,9.88,72700.3,-8.19,-39.23,-39.91,0,*57
1519282850.73,58830,9.88,72698.3,-8.19,-38.97,-39.59,0,*55
1519282852.02,58831,9.88,72700.5,-8.19,-39.15,-39.79,0,*5D
1519282853.31,58832,9.88,72698.0,-8.19,-39.15,-39.71,0,*56
1519282854.57,58833,9.88,72696.8,-8.21,-39.23,-39.79,0,*51
1519282855.81,58834,9.88,72698.0,-8.21,-39.29,-39.85,0,*5F
1519282857.07,58835,9.88,72698.8,-8.23,-39.03,-39.65,0,*5A
1519282858.35,58836,9.88,72702.3,-8.23,-39.23,-39.79,0,*56
1519282859.61,58837,9.88,72692.0,-8.23,-38.97,-39.59,0,*5B
1519282860.9,58838,9.88,72696.0,-8.23,-39.23,-39.79,0,*58
1519282862.19,58839,9.88,72696.5,-8.23,-39.23,-39.79,0,*59
1519282863.45,58840,9.88,72702.5,-8.23,-39.41,-39.85,0,*50
1519282864.71,58841,9.88,72696.5,-8.25,-39.15,-39.71,0,*5D
1519282865.97,58842,9.88,72700.0,-8.27,-39.65,-40.21,0,*50
1519282867.21,58843,9.88,72694.0,-8.27,-39.47,-39.91,0,*54
1519282868.47,58844,9.88,72696.5,-8.27,-39.15,-39.85,0,*51
1519282869.7,58845,9.88,72696.0,-8.27,-39.47,-40.03,0,*57
1519282870.93,58846,9.88,72698.8,-8.27,-39.09,-39.85,0,*5E
1519282872.19,58847,9.88,72696.5,-8.27,-39.29,-39.91,0,*58
1519282873.45,58848,9.88,72696.0,-8.29,-39.53,-40.09,0,*5B
1519282874.72,58849,9.88,72696.8,-8.29,-39.41,-40.09,0,*59
1519282875.95,58850,9.88,72696.5,-8.33,-39.35,-39.97,0,*50
1519282877.19,58851,9.88,72698.8,-8.29,-39.35,-39.79,0,*5A
1519282878.45,58852,9.88,72698.3,-8.33,-39.41,-39.79,0,*51
1519282879.69,58853,9.88,72696.3,-8.29,-39.35,-39.97,0,*58
1519282880.94,58854,9.88,72700.3,-8.33,-39.53,-40.09,0,*5D
1519282882.22,58855,9.88,72700.8,-8.35,-39.59,-40.15,0,*5D
1519282883.47,58856,9.88,72700.3,-8.35,-39.41,-40.03,0,*50
1519282884.73,58857,9.88,72696.5,-8.37,-39.97,-40.41,0,*5E
1519282885.97,58858,9.88,72698.8,-8.37,-39.59,-40.03,0,*55
1519282887.21,58859,9.88,72698.0,-8.37,-39.65,-40.21,0,*5B
1519282888.47,58860,9.88,72692.8,-8.37,-39.29,-39.97,0,*5A
1519282889.71,58861,9.88,72702.0,-8.37,-39.65,-40.21,0,*50
1519282890.99,58862,9.88,72696.8,-8.39,-39.53,-40.21,0,*58
1519282892.2,58863,9.88,72698.5,-8.41,-39.47,-40.03,0,*53
1519282893.43,58864,9.88,72700.5,-8.39,-39.47,-40.03,0,*5B
1519282894.64,58865,9.88,72698.5,-8.41,-39.47,-39.91,0,*50
1519282895.85,58866,9.88,72696.3,-8.41,-39.35,-40.03,0,*53
1519282897.11,58867,9.88,72700.0,-8.41,-39.53,-40.09,0,*58
1519282898.34,58868,9.88,72698.0,-8.43,-39.91,-40.47,0,*51
1519282899.6,58869,9.88,72698.5,-8.43,-39.71,-40.35,0,*5B
1519282900.89,58870,9.88,72702.0,-8.43,-39.41,-40.09,0,*5F
1519282902.17,58871,9.94,72702.3,-8.45,-39.59,-40.09,0,*51
1519282903.44,58872,9.88,72702.8,-8.45,-39.71,-40.29,0,*5A
1519282904.69,58873,9.88,72698.0,-8.45,-39.79,-40.47,0,*5B
1519282905.96,58874,9.88,72696.3,-8.47,-39.85,-40.41,0,*5B
1519282907.22,58875,9.88,72696.5,-8.47,-39.65,-40.21,0,*52
1519282908.49,58876,9.88,72696.8,-8.47,-40.03,-40.59,0,*50
1519282909.76,58877,9.88,72696.5,-8.47,-39.79,-40.15,0,*5A
1519282910.97,58878,9.88,72700.8,-8.49,-39.47,-40.15,0,*56
1519282912.26,58879,9.88,72700.3,-8.47,-39.59,-39.97,0,*52
1519282913.51,58880,9.88,72698.3,-8.49,-39.85,-40.41,0,*5E
1519282914.74,58881,9.88,72700.8,-8.49,-39.97,-40.53,0,*5F
1519282916.01,58882,9.88,72698.0,-8.51,-39.85,-40.41,0,*55
1519282917.25,58883,9.88,72702.3,-8.55,-39.79,-40.35,0,*50
1519282918.49,58884,9.88,72698.5,-8.55,-39.59,-40.15,0,*57
1519282919.73,58885,9.88,72698.0,-8.55,-40.09,-40.65,0,*5A
1519282920.99,58886,9.88,72698.0,-8.51,-39.85,-40.29,0,*5F
1519282922.28,58887,9.88,72698.5,-8.51,-39.71,-40.29,0,*55
1519282923.52,58888,9.88,72698.8,-8.55,-40.09,-40.65,0,*57
1519282924.73,58889,9.88,72700.3,-8.55,-39.91,-40.35,0,*5C
1519282926.0,58890,9.88,72696.8,-8.61,-40.15,-40.59,0,*5B
1519282927.27,58891,9.88,72696.3,-8.59,-39.79,-40.29,0,*52
1519282928.53,58892,9.88,72700.0,-8.61,-39.97,-40.35,0,*57
1519282929.79,58893,9.88,72698.0,-8.61,-39.97,-40.53,0,*56
1519282931.05,58894,9.88,72698.8,-8.61,-39.85,-40.21,0,*57
1519282932.26,58895,9.88,72700.0,-8.59,-39.91,-40.47,0,*58
1519282933.52,58896,9.88,72696.3,-8.63,-39.97,-40.41,0,*52
1519282934.76,58897,9.88,72698.0,-8.65,-39.91,-40.47,0,*55
1519282935.97,58898,9.88,72702.3,-8.63,-39.85,-40.35,0,*5C
1519282937.23,58899,9.88,72700.8,-8.65,-39.85,-40.29,0,*56
1519282938.52,58900,9.88,72696.8,-8.65,-40.29,-40.85,0,*59
1519282939.73,58901,9.88,72698.0,-8.67,-39.91,-40.47,0,*59
1519282940.98,58902,9.88,72698.8,-8.67,-39.91,-40.59,0,*55
1519282942.2,58903,9.88,72700.8,-8.67,-40.15,-40.65,0,*59
1519282943.44,58904,9.88,72698.8,-8.69,-39.91,-40.35,0,*57
1519282944.72,58905,9.88,72700.0,-8.69,-40.15,-40.85,0,*5F
1519282945.97,58906,9.88,72696.5,-8.69,-40.29,-40.73,0,*5A
1519282947.23,58907,9.88,72696.8,-8.69,-39.97,-40.65,0,*57
1519282948.46,58908,9.88,72698.3,-8.71,-39.97,-40.47,0,*51
1519282949.68,58909,9.88,72698.3,-8.71,-39.91,-40.15,0,*51
1519282950.95,58910,9.88,72698.3,-8.73,-40.03,-40.59,0,*56
1519282952.19,58911,9.88,72696.8,-8.71,-40.35,-40.85,0,*51
1519282953.42,58912,9.88,72700.0,-8.71,-40.09,-40.35,0,*56
1519282954.64,58913,9.88,72698.0,-8.71,-39.91,-40.47,0,*5D
1519282955.88,58914,9.88,72698.0,-8.73,-40.03,-40.53,0,*58
1519282957.12,58915,9.88,72696.5,-8.75,-40.03,-40.41,0,*5C
1519282958.39,58916,9.88,72698.5,-8.73,-40.15,-40.59,0,*57
1519282959.63,58917,9.88,72698.5,-8.75,-39.97,-40.53,0,*5E
1519282960.86,58918,9.88,72698.8,-8.75,-39.97,-40.53,0,*51
1519282962.16,58919,9.88,72696.0,-8.77,-40.41,-40.85,0,*5C
1519282963.43,58920,9.88,72698.0,-8.77,-39.91,-40.29,0,*53
1519282964.68,58921,9.88,72698.8,-8.77,-39.91,-40.47,0,*5A
1519282965.95,58922,9.88,72698.8,-8.77,-40.09,-40.47,0,*56
1519282967.18,58923,9.88,72698.8,-8.83,-40.29,-40.65,0,*5E
1519282968.44,58924,9.88,72698.3,-8.81,-40.09,-40.53,0,*5C
1519282969.7,58925,9.94,72698.3,-8.81,-39.97,-40.47,0,*51
1519282970.96,58926,9.88,72698.0,-8.83,-40.29,-40.85,0,*55
1519282972.23,58927,9.88,72696.3,-8.81,-40.09,-40.53,0,*5F
1519282973.47,58928,9.88,72698.3,-8.83,-39.71,-40.35,0,*53
1519282974.69,58929,9.88,72698.5,-8.83,-40.15,-40.65,0,*5B
1519282975.92,58930,9.94,72700.3,-8.85,-39.97,-40.53,0,*54
1519282977.21,58931,9.94,72696.5,-8.87,-39.97,-40.41,0,*54
1519282978.45,58932,9.88,72698.8,-8.87,-40.03,-40.53,0,*57
1519282979.66,58933,9.88,72698.5,-8.85,-39.85,-40.35,0,*54
1519282980.92,58934,9.94,72702.3,-8.87,-39.97,-40.53,0,*52
1519282982.14,58935,9.88,72694.8,-8.85,-39.91,-40.35,0,*57
1519282983.41,58936,9.88,72696.5,-8.87,-39.91,-40.41,0,*55
1519282984.69,58937,9.88,72692.8,-8.87,-40.15,-40.41,0,*56
1519282985.93,58938,9.88,72698.8,-8.89,-40.15,-40.59,0,*5E
1519282987.17,58939,9.88,72696.8,-8.89,-39.97,-40.53,0,*51
1519282988.41,58940,9.94,72696.0,-8.89,-39.91,-40.41,0,*5A
1519282989.67,58941,9.94,72698.3,-8.91,-39.97,-40.47,0,*52
1519282990.95,58942,9.94,72696.5,-8.91,-40.09,-40.41,0,*5E
1519282992.18,58943,9.88,72694.5,-8.91,-40.03,-40.47,0,*53
1519282993.44,58944,9.88,72694.0,-8.91,-40.09,-40.47,0,*5E
1519282994.67,58945,9.88,72694.3,-8.91,-40.03,-40.53,0,*50
1519282995.92,58946,9.94,72700.5,-8.91,-40.21,-40.47,0,*56
1519282997.14,58947,9.88,72698.0,-8.93,-40.15,-40.53,0,*57
1519282998.36,58948,9.94,72702.3,-8.93,-39.91,-40.35,0,*5A
1519282999.59,58949,9.94,72698.0,-8.95,-40.03,-40.47,0,*5D
1519283000.82,58950,9.94,72696.8,-8.95,-40.35,-40.65,0,*50
1519283002.05,58951,9.88,72698.8,-8.95,-40.35,-40.73,0,*56
1519283003.31,58952,9.94,72696.8,-8.95,-40.29,-40.73,0,*58
1519283004.56,58953,9.94,72700.3,-8.97,-40.15,-40.59,0,*5C
1519283005.8,58954,9.94,72698.0,-8.97,-40.09,-40.53,0,*5C
1519283007.02,58955,9.94,72702.3,-8.97,-40.15,-40.53,0,*50
1519283008.25,58956,9.94,72696.8,-8.99,-40.35,-40.73,0,*5D
1519283009.53,58957,9.88,72696.3,-8.99,-40.15,-40.59,0,*56
1519283010.78,58958,9.88,72696.8,-8.99,-40.21,-40.73,0,*56
1519283012.03,58959,9.94,72698.8,-8.99,-40.21,-40.73,0,*57
1519283013.29,58960,9.94,72696.8,-8.99,-40.21,-40.73,0,*5D
1519283014.57,58961,9.88,72696.8,-8.99,-39.97,-40.59,0,*57
1519283015.83,58962,9.94,72696.5,-8.99,-39.97,-40.53,0,*5E
1519283017.04,58963,9.94,72698.0,-9.05,-40.03,-40.47,0,*5D
1519283018.3,58964,9.88,72698.0,-9.03,-40.29,-40.65,0,*54
1519283019.52,58965,9.94,72696.8,-9.05,-40.15,-40.65,0,*5C
1519283020.75,58966,9.88,72692.5,-9.07,-40.03,-40.35,0,*5F
1519283021.97,58967,9.88,72696.0,-9.09,-39.91,-40.47,0,*50
1519283023.21,58968,9.94,72698.0,-9.07,-40.03,-40.47,0,*54
1519283024.46,58969,9.88,72698.3,-9.07,-40.21,-40.47,0,*55
1519283025.72,58970,9.94,72698.8,-9.07,-40.09,-40.47,0,*57
1519283026.96,58971,9.94,72702.0,-9.09,-40.21,-40.53,0,*57
1519283028.19,58972,9.94,72698.8,-9.09,-40.21,-40.65,0,*51
1519283029.43,58973,9.88,72698.0,-9.09,-40.29,-40.73,0,*5F
1519283030.69,58974,9.94,72698.3,-9.07,-40.09,-40.65,0,*53
1519283031.94,58975,9.88,72694.8,-9.09,-40.09,-40.65,0,*5C
1519283033.19,58976,9.94,72698.3,-9.09,-40.09,-40.53,0,*5A
1519283034.47,58977,9.94,72700.3,-9.11,-40.15,-40.59,0,*55
1519283035.73,58978,9.88,72696.0,-9.11,-40.29,-40.73,0,*5D
1519283036.99,58979,9.94,72702.8,-9.11,-40.35,-40.79,0,*5B
1519283038.26,58980,9.94,72702.5,-9.11,-40.29,-40.53,0,*58
1519283039.51,58981,9.94,72700.3,-9.13,-40.15,-40.59,0,*5E
1519283040.76,58982,9.94,72700.3,-9.13,-40.15,-40.59,0,*5D
1519283042.05,58983,9.88,72698.3,-9.11,-40.41,-40.79,0,*5D
1519283043.28,58984,9.94,72696.0,-9.13,-40.15,-40.53,0,*51
1519283044.56,58985,9.94,72698.0,-9.15,-40.21,-40.59,0,*5B
1519283045.85,58986,9.88,72696.8,-9.15,-40.21,-40.59,0,*58
1519283047.08,58987,9.88,72696.5,-9.17,-40.47,-40.65,0,*54
1519283048.34,58988,9.94,72698.5,-9.15,-40.21,-40.65,0,*59
1519283049.62,58989,9.94,72696.5,-9.17,-40.21,-40.79,0,*57
1519283050.88,58990,9.94,72696.8,-9.17,-40.21,-40.47,0,*52
1519283052.13,58991,9.94,72696.0,-9.17,-40.21,-40.47,0,*53
1519283053.42,58992,9.88,72698.5,-9.17,-40.21,-40.59,0,*5F
1519283054.66,58993,9.94,72700.0,-9.19,-40.29,-40.73,0,*50
1519283055.92,58994,9.94,72698.0,-9.21,-40.41,-40.65,0,*55
1519283057.18,58995,9.94,72696.0,-9.21,-40.29,-40.73,0,*5D
1519283058.44,58996,9.94,72698.8,-9.21,-40.21,-40.65,0,*51
1519283059.7,58997,9.94,72696.5,-9.21,-40.21,-40.65,0,*50
1519283060.96,58998,9.94,72696.8,-9.21,-40.41,-40.73,0,*5E
1519283062.17,58999,9.94,72698.0,-9.23,-40.35,-40.73,0,*5E
1519283063.38,59000,9.94,72700.8,-9.23,-40.53,-40.91,0,*5A
1519283064.64,59001,9.94,72696.8,-9.23,-40.29,-40.59,0,*52
1519283065.89,59002,9.94,72698.5,-9.27,-40.15,-40.59,0,*5A
1519283067.12,59003,9.88,72698.8,-9.27,-40.15,-40.53,0,*51
1519283068.34,59004,9.94,72698.8,-9.27,-40.15,-40.47,0,*53
1519283069.63,59005,9.94,72700.0,-9.29,-40.21,-40.79,0,*56
1519283070.85,59006,9.94,72700.0,-9.27,-40.15,-40.53,0,*54
1519283072.12,59007,9.94,72700.3,-9.31,-40.21,-40.59,0,*5F
1519283073.36,59008,9.94,72696.3,-9.31,-40.41,-40.65,0,*59
1519283074.6,59009,9.94,72696.8,-9.31,-40.41,-40.65,0,*58
1519283075.87,59010,9.94,72698.0,-9.31,-40.21,-40.59,0,*59
1519283077.13,59011,9.94,72694.8,-9.31,-40.21,-40.59,0,*58
1519283078.4,59012,9.94,72698.5,-9.33,-40.41,-40.65,0,*50
1519283079.69,59013,9.94,72696.8,-9.33,-40.41,-40.59,0,*5E
1519283080.94,59014,9.94,72698.0,-9.35,-40.03,-40.41,0,*50
1519283082.18,59015,9.94,72696.0,-9.35,-40.03,-40.41,0,*51
1519283083.47,59016,9.94,72696.0,-9.33,-40.21,-40.59,0,*5D
1519283084.74,59017,9.94,72696.5,-9.33,-40.41,-40.91,0,*5E
1519283085.98,59018,9.94,72698.5,-9.35,-40.29,-40.65,0,*52
1519283087.26,59019,9.94,72696.5,-9.35,-40.09,-40.41,0,*57
1519283088.52,59020,9.94,72698.5,-9.35,-40.21,-40.41,0,*57
1519283089.81,59021,9.94,72698.3,-9.33,-40.29,-40.59,0,*51
1519283091.05,59022,9.88,72694.0,-9.37,-40.47,-40.65,0,*51
1519283092.31,59023,9.94,72696.8,-9.37,-40.29,-40.53,0,*5D
1519283093.53,59024,9.94,72698.8,-9.39,-40.15,-40.65,0,*5E
1519283094.75,59025,9.94,72698.5,-9.39,-40.47,-40.65,0,*58
1519283096.02,59026,9.94,72698.5,-9.37,-40.09,-40.53,0,*5A
1519283097.25,59027,9.94,72694.8,-9.39,-40.29,-40.47,0,*52
1519283098.47,59028,9.94,72696.5,-9.39,-40.15,-40.35,0,*57
1519283099.71,59029,9.94,72696.3,-9.39,-40.09,-40.35,0,*5B
1519283100.93,59030,9.94,72700.0,-9.39,-40.15,-40.47,0,*5B
1519283102.15,59031,9.94,72698.0,-9.39,-39.91,-40.15,0,*5F
1519283103.42,59032,9.94,72698.5,-9.41,-40.03,-40.41,0,*57
1519283104.67,59033,9.94,72696.0,-9.41,-40.35,-40.53,0,*50
1519283105.94,59034,9.94,72696.8,-9.41,-40.35,-40.59,0,*5D
1519283107.2,59035,9.94,72698.5,-9.41,-40.21,-40.53,0,*53
1519283108.46,59036,9.94,72696.8,-9.41,-40.21,-40.53,0,*50
1519283109.75,59037,9.94,72700.8,-9.45,-40.21,-40.59,0,*5F
1519283110.96,59038,9.94,72696.3,-9.43,-40.03,-40.35,0,*5C
1519283112.22,59039,9.94,72696.0,-9.45,-40.29,-40.65,0,*56
1519283113.46,59040,9.94,72700.3,-9.45,-40.47,-40.65,0,*50
1519283114.72,59041,9.94,72698.5,-9.45,-40.29,-40.65,0,*59
1519283116.0,59042,9.88,72692.8,-9.49,-40.21,-40.59,0,*51
1519283117.29,59043,9.94,72696.3,-9.45,-40.29,-40.59,0,*54
1519283118.53,59044,9.94,72700.5,-9.49,-40.21,-40.47,0,*58
1519283119.81,59045,9.94,72698.8,-9.49,-40.09,-40.41,0,*55
1519283121.04,59046,9.94,72698.3,-9.51,-40.47,-40.85,0,*5D
1519283122.24,59047,9.94,72698.8,-9.51,-40.35,-40.65,0,*57
1519283123.45,59048,9.94,72696.3,-9.51,-40.15,-40.47,0,*5A
1519283124.68,59049,9.94,72698.8,-9.53,-40.35,-40.65,0,*5B
1519283125.9,59050,9.94,72696.5,-9.51,-40.29,-40.53,0,*59
1519283127.13,59051,9.94,72696.3,-9.53,-40.47,-40.73,0,*50
1519283128.36,59052,9.94,72702.0,-9.53,-40.65,-40.91,0,*5F
1519283129.6,59053,9.94,72700.5,-9.53,-40.15,-40.53,0,*57
1519283130.85,59054,9.94,72700.8,-9.53,-40.29,-40.53,0,*5F
1519283132.11,59055,9.94,72702.8,-9.53,-40.29,-40.53,0,*5E
1519283133.34,59056,9.94,72696.3,-9.55,-40.35,-40.59,0,*5C
1519283134.58,59057,9.94,72698.5,-9.57,-40.21,-40.53,0,*50
1519283135.83,59058,9.94,72698.3,-9.55,-40.21,-40.59,0,*57
1519283137.03,59059,9.94,72698.0,-9.55,-40.53,-40.73,0,*5B
1519283138.28,59060,9.94,72698.3,-9.57,-40.21,-40.53,0,*54
1519283139.56,59061,9.94,72698.0,-9.57,-40.41,-40.79,0,*5B
1519283140.82,59062,9.94,72698.0,-9.57,-40.41,-40.73,0,*52
1519283142.05,59063,9.94,72702.0,-9.59,-40.41,-40.65,0,*5A
1519283143.27,59064,9.94,72696.5,-9.59,-40.29,-40.65,0,*53
1519283144.49,59065,9.94,72700.8,-9.59,-40.29,-40.47,0,*52
1519283145.71,59066,9.94,72696.5,-9.59,-40.21,-40.47,0,*59
1519283146.96,59067,9.94,72700.3,-9.61,-40.29,-40.47,0,*5B
1519283148.21,59068,9.94,72698.5,-9.61,-40.21,-40.47,0,*5C
1519283149.47,59069,9.94,72698.8,-9.61,-40.41,-40.65,0,*5B
1519283150.72,59070,9.94,72692.0,-9.61,-40.41,-40.65,0,*53
1519283152.0,59071,9.94,72696.5,-9.61,-40.29,-40.59,0,*53
1519283153.21,59072,9.94,72700.0,-9.63,-40.15,-40.47,0,*52
1519283154.45,59073,9.94,72702.5,-9.65,-40.15,-40.47,0,*55
1519283155.7,59074,9.94,72698.3,-9.65,-40.29,-40.65,0,*5D
1519283156.89,59075,9.94,72698.8,-9.63,-40.35,-40.65,0,*57
1519283158.11,59076,9.94,72696.8,-9.65,-40.53,-40.65,0,*52
1519283159.35,59077,9.94,72698.5,-9.65,-40.15,-40.53,0,*54
1519283160.58,59078,9.94,72698.5,-9.65,-40.47,-40.53,0,*5C
1519283161.83,59079,9.94,72698.0,-9.65,-40.29,-40.53,0,*55
1519283163.06,59080,9.94,72700.8,-9.67,-40.35,-40.59,0,*56
1519283164.31,59081,9.94,72696.8,-9.67,-40.41,-40.79,0,*56
1519283165.53,59082,9.94,72698.3,-9.67,-40.21,-40.53,0,*5B
1519283166.75,59083,9.94,72700.5,-9.67,-40.21,-40.53,0,*5A
1519283167.98,59084,9.94,72698.8,-9.71,-40.41,-40.73,0,*5E
1519283169.21,59085,9.94,72696.0,-9.71,-40.35,-40.59,0,*54
1519283170.45,59086,9.94,72696.0,-9.71,-40.15,-40.41,0,*5C
1519283171.72,59087,9.94,72698.8,-9.73,-40.29,-40.59,0,*59
1519283173.0,59088,9.94,72698.5,-9.73,-40.21,-40.59,0,*5E
1519283174.25,59089,9.94,72694.3,-9.73,-40.47,-40.79,0,*5D
1519283175.51,59090,9.94,72698.3,-9.75,-40.09,-40.59,0,*5B
1519283176.79,59091,9.94,72696.3,-9.73,-40.29,-40.59,0,*5E
1519283178.01,59092,9.94,72698.5,-9.75,-40.29,-40.47,0,*54
1519283179.27,59093,9.94,72698.0,-9.75,-40.29,-40.59,0,*5A
1519283180.5,59094,9.94,72698.5,-9.75,-40.41,-40.65,0,*5C
1519283181.74,59095,9.94,72696.5,-9.77,-40.15,-40.65,0,*5E
1519283182.97,59096,9.94,72698.8,-9.75,-40.09,-40.47,0,*52
1519283184.23,59097,9.94,72702.5,-9.77,-40.29,-40.53,0,*56
1519283185.46,59098,9.94,72700.8,-9.77,-40.35,-40.53,0,*54
1519283186.69,59099,9.94,72702.0,-9.79,-40.29,-40.65,0,*53
1519283187.9,59100,9.94,72700.8,-9.79,-40.15,-40.53,0,*58
1519283189.14,59101,9.94,72700.8,-9.79,-40.09,-40.53,0,*54
1519283190.35,59102,9.94,72700.5,-9.79,-40.15,-40.47,0,*5F
1519283191.58,59103,9.94,72696.0,-9.79,-40.09,-40.47,0,*53
1519283192.8,59104,9.94,72698.3,-9.79,-40.15,-40.53,0,*5C
1519283194.01,59105,9.94,72698.0,-9.79,-40.15,-40.47,0,*58
1519283195.23,59106,9.94,72698.3,-9.79,-40.29,-40.47,0,*54
1519283196.48,59107,9.94,72702.3,-9.81,-40.21,-40.59,0,*55
1519283197.73,59108,9.94,72700.3,-9.83,-40.21,-40.53,0,*52
1519283198.96,59109,9.94,72698.0,-9.83,-40.03,-40.53,0,*53
1519283200.21,59110,9.94,72700.0,-9.81,-40.21,-40.59,0,*53
1519283201.45,59111,9.94,72700.5,-9.83,-40.21,-40.53,0,*5A
1519283202.69,59112,9.94,72700.8,-9.83,-40.15,-40.53,0,*5E
1519283203.95,59113,9.94,72702.0,-9.83,-40.15,-40.59,0,*55
1519283205.2,59114,9.94,72696.5,-9.83,-40.21,-40.53,0,*5F
1519283206.47,59115,9.94,72702.3,-9.85,-40.09,-40.41,0,*51
1519283207.73,59116,9.94,72696.0,-9.85,-40.09,-40.41,0,*52
1519283208.98,59117,9.94,72700.8,-9.85,-40.21,-40.59,0,*50
1519283210.21,59118,9.94,72700.0,-9.85,-40.21,-40.65,0,*50
1519283211.49,59119,9.94,72702.3,-9.87,-40.09,-40.41,0,*5F
1519283212.78,59120,9.94,72700.5,-9.87,-40.09,-40.41,0,*55
1519283214.05,59121,9.94,72694.3,-9.85,-40.09,-40.41,0,*56
1519283215.33,59122,9.94,72696.5,-9.87,-40.29,-40.59,0,*5C
1519283216.6,59123,9.94,72698.5,-9.87,-40.21,-40.59,0,*55
1519283217.84,59124,9.94,72700.3,-9.91,-40.15,-40.47,0,*5D
1519283219.05,59125,9.94,72700.0,-9.89,-40.15,-40.47,0,*55
1519283220.29,59126,9.94,72696.8,-9.89,-40.09,-40.47,0,*5B
1519283221.57,59127,9.94,72696.3,-9.91,-40.09,-40.29,0,*5B
1519283222.81,59128,9.94,72700.0,-9.89,-40.09,-40.47,0,*55
1519283224.07,59129,9.94,72698.8,-9.91,-40.09,-40.53,0,*58
1519283225.33,59130,9.94,72698.0,-9.91,-40.09,-40.35,0,*50
1519283226.56,59131,9.94,72696.5,-9.91,-40.03,-40.35,0,*5B
1519283227.82,59132,9.94,72700.8,-9.91,-40.03,-40.29,0,*55
1519283229.1,59133,9.94,72696.8,-9.91,-40.09,-40.29,0,*5E
1519283230.34,59134,9.94,72698.0,-9.91,-40.15,-40.35,0,*59
1519283231.58,59135,9.94,72698.8,-9.95,-40.15,-40.53,0,*5C
1519283232.85,59136,9.94,72698.5,-9.95,-40.15,-40.41,0,*5C
1519283234.11,59137,9.94,72700.3,-9.97,-40.09,-40.21,0,*54
1519283235.35,59138,9.94,72696.8,-9.95,-40.15,-40.53,0,*51
1519283236.59,59139,9.94,72702.8,-9.97,-40.09,-40.35,0,*5F
1519283237.81,59140,9.94,72700.8,-9.97,-40.15,-40.35,0,*5C
1519283239.07,59141,9.94,72698.5,-9.97,-40.09,-40.41,0,*53
1519283240.31,59142,9.94,72696.8,-9.97,-40.09,-40.35,0,*53
1519283241.54,59143,9.94,72702.5,-9.97,-39.97,-40.15,0,*59
1519283242.78,59144,9.94,72698.0,-9.97,-40.09,-40.35,0,*55
1519283244.03,59145,9.94,72700.8,-10.01,-40.15,-40.41,0,*6D
1519283245.3,59146,9.94,72700.5,-9.99,-40.15,-40.41,0,*57
1519283246.57,59147,9.94,72698.8,-9.99,-40.15,-40.41,0,*56
1519283247.83,59148,9.94,72698.0,-9.99,-40.03,-40.41,0,*5E
1519283249.1,59149,9.94,72700.8,-9.99,-40.15,-40.41,0,*58
1519283250.36,59150,9.94,72700.3,-10.01,-40.15,-40.41,0,*69
1519283251.61,59151,9.94,72702.3,-9.99,-40.03,-40.29,0,*58
1519283252.85,59152,9.94,72702.3,-10.01,-40.03,-40.29,0,*62
1519283254.09,59153,9.94,72700.5,-10.01,-40.03,-40.29,0,*63
1519283255.34,59154,9.94,72700.5,-10.01,-40.15,-40.41,0,*6D
1519283256.61,59155,9.94,72700.8,-10.03,-39.91,-40.21,0,*6A
1519283257.88,59156,9.94,72698.0,-10.03,-40.09,-40.35,0,*63
1519283259.14,59157,9.94,72696.3,-10.03,-40.03,-40.29,0,*65
1519283260.41,59158,9.94,72700.0,-10.05,-40.09,-40.29,0,*66
1519283261.66,59159,9.94,72702.3,-10.05,-40.15,-40.41,0,*64
1519283262.91,59160,9.94,72702.8,-10.03,-40.21,-40.35,0,*6C
1519283264.15,59161,9.94,72704.3,-10.05,-40.09,-40.35,0,*61
1519283265.39,59162,9.94,72700.5,-10.05,-40.09,-40.35,0,*62
1519283266.65,59163,9.94,72702.8,-10.03,-40.03,-40.21,0,*6A
1519283267.87,59164,9.94,72696.0,-10.05,-39.91,-40.15,0,*69
1519283269.11,59165,9.94,72698.5,-10.05,-40.09,-40.35,0,*65
1519283270.37,59166,9.94,72702.0,-10.05,-39.97,-40.29,0,*62
1519283271.65,59167,9.94,72702.3,-10.09,-39.79,-39.97,0,*64
1519283272.92,59168,9.94,72702.0,-10.07,-39.91,-40.29,0,*68
1519283274.19,59169,9.94,72702.8,-10.07,-39.91,-40.09,0,*6B
1519283275.46,59170,9.94,72702.3,-10.07,-39.71,-40.15,0,*60
1519283276.73,59171,9.94,72702.8,-10.09,-39.71,-39.97,0,*6B
1519283278.0,59172,9.94,72700.5,-10.07,-39.71,-39.91,0,*60
1519283279.28,59173,9.94,72702.0,-10.09,-39.59,-39.79,0,*63
1519283280.56,59174,9.94,72700.3,-10.09,-39.71,-39.97,0,*6E
1519283281.83,59175,9.94,72698.5,-10.09,-39.79,-39.97,0,*67
1519283283.11,59176,9.94,72702.8,-10.09,-39.79,-40.09,0,*6D
1519283284.36,59177,9.94,72700.0,-10.09,-39.71,-39.91,0,*6B
1519283285.64,59178,9.94,72702.0,-10.09,-39.59,-40.09,0,*61
1519283286.9,59179,10.0,72706.0,-10.09,-39.91,-40.09,0,*64
1519283288.15,59180,9.94,72700.5,-10.09,-39.91,-40.09,0,*62
1519283289.43,59181,9.94,72700.0,-10.09,-39.79,-40.09,0,*65
1519283290.7,59182,9.94,72702.3,-10.09,-39.71,-39.97,0,*67
1519283291.97,59183,9.94,72700.5,-10.09,-39.71,-39.97,0,*66
1519283293.23,59184,9.94,72704.0,-10.09,-39.59,-39.91,0,*6D
1519283294.48,59185,9.94,72700.3,-10.09,-39.79,-39.91,0,*6E
1519283295.76,59186,9.94,72704.8,-10.09,-39.79,-39.97,0,*6B
1519283297.03,59187,9.94,72700.8,-10.13,-39.79,-40.03,0,*62
1519283298.27,59188,9.94,72704.8,-10.13,-39.65,-40.03,0,*60
1519283299.53,59189,10.0,72708.0,-10.13,-39.41,-39.65,0,*69
1519283300.83,59190,9.94,72702.3,-10.13,-39.59,-39.97,0,*65
1519283302.1,59191,9.94,72698.3,-10.13,-39.59,-39.85,0,*67
1519283303.34,59192,9.94,72700.5,-10.15,-39.47,-39.71,0,*66
1519283304.61,59193,9.94,72706.5,-10.13,-39.41,-39.65,0,*62
1519283305.9,59194,9.94,72702.8,-10.13,-39.41,-39.79,0,*68
1519283307.15,59195,9.94,72704.5,-10.13,-39.29,-39.47,0,*6A